Location: Holungen
(51.4903°N, 10.3926°E)
Time: 23:29:31
(UTC+00:00)

Daily predictions for brighter satellites

Satellite Brightness Start Highest point End
(mag) Time Altitude Azimuth Time Altitude Azimuth Time Altitude Azimuth
Cosmos 1420 Rocket 4.0 20:17:21 10° SSW 20:22:31 78° ESE 20:27:45 10° NNE
Lacrosse 5 2.5 20:17:58 10° WNW 20:22:48 47° SW 20:27:39 10° SSE
Meteor 1-21 4.3 20:17:46 10° S 20:23:27 85° E 20:29:06 10° NNE
Cosmos 2360 Rocket 3.1 20:18:55 10° SSE 20:23:39 29° ESE 20:28:24 10° NE
Cosmos 2322 Rocket 2.6 20:18:34 10° S 20:23:59 46° ESE 20:29:25 10° NE
ATLAS 3B R/B 4.1 20:20:24 10° SE 20:24:07 16° ESE 20:27:54 10° ENE
Cosmos 1470 3.6 20:20:29 10° NNW 20:24:22 51° W 20:28:12 10° S
Meteor 1-16 Rocket 4.4 20:20:21 10° N 20:25:52 61° ENE 20:31:12 10° SSE
Cosmos 1378 Rocket 4.1 20:21:46 10° SSW 20:26:04 62° WNW 20:30:27 10° N
Terra 2.4 20:23:31 10° SE 20:28:03 45° ENE 20:32:35 10° N
Cosmos 1315 Rocket 3.6 20:25:24 10° NNW 20:29:28 53° W 20:33:29 10° S
Genesis I 3.3 20:25:52 10° SSW 20:29:37 52° SE 20:33:28 10° NE
SPOT 3 Rocket 4.4 20:24:59 10° S 20:29:58 48° W 20:35:01 10° NNW
ERS-1 Rocket 3.1 20:25:29 10° SSE 20:30:29 66° ENE 20:35:29 10° N
Cosmos 220 Rocket 4.1 20:28:55 10° SSW 20:33:13 79° WNW 20:37:30 10° NNE
Cosmos 1741 Rocket 4.1 20:31:23 10° NNW 20:36:41 87° ENE 20:41:58 10° SSE
DNEPR-1 R/B 4.4 20:36:56 10° NW 20:41:02 42° NE 20:45:08 10° ESE
USA 215 4.1 20:37:20 10° ENE 20:42:37 26° SE 20:47:52 10° S
Cosmos 1980 Rocket 3.7 20:37:56 10° WSW 20:43:16 41° NW 20:48:36 10° NNE
Cosmos 2278 Rocket 4.0 20:39:22 10° NNW 20:43:54 24° NE 20:48:26 10° E
Cosmos 1459 Rocket 4.0 20:38:49 10° N 20:44:54 74° ENE 20:50:57 10° SSE
Cosmos 1674 2.8 20:42:02 10° S 20:45:41 56° E 20:49:20 10° NNE
Cosmos 1758 4.3 20:43:15 10° NNW 20:47:05 45° W 20:50:51 10° SSW
Resurs 01 Rocket 3.5 20:43:40 10° SSW 20:47:21 26° W 20:51:04 10° NW
Cosmos 1300 4.0 20:45:13 10° N 20:48:33 28° ENE 20:51:46 10° SE
USA 238 DEB 3.8 20:42:30 10° SW 20:49:08 83° NW 20:56:10 10° NE
USA 238 3.8 20:42:37 10° SW 20:49:13 83° NW 20:56:15 10° NE
Cosmos 2061 Rocket 4.3 20:47:46 10° N 20:54:09 59° ENE 21:00:14 11° SSE
Cosmos 1844 Rocket 2.8 20:53:26 10° NNW 20:59:08 87° WSW 21:04:26 12° SSE
CARTOSAT-1 4.2 20:55:05 10° S 20:59:17 52° W 21:03:32 10° NNW
Cosmos 1025 Rocket 3.3 20:57:25 10° S 21:01:41 54° E 21:05:58 10° NNE
Lacrosse 5 rocket 2.6 20:59:58 12° SSE 21:01:49 16° SE 21:04:09 10° E
Cosmos 1908 3.4 21:00:14 10° NNW 21:04:07 73° W 21:07:53 11° S
CENTAUR R/B 2.9 20:58:21 10° SW 21:04:31 74° NW 21:11:58 10° NE
Cosmos 1975 Rocket 3.2 21:03:16 10° SSW 21:07:36 76° W 21:12:02 10° N
SL-8 R/B 4.0 21:03:52 10° W 21:08:30 49° SSW 21:13:03 10° ESE
Cosmos 2263 Rocket 4.3 21:06:56 10° NW 21:10:55 20° W 21:14:52 10° SW
Cosmos 1340 3.2 21:11:35 14° SSE 21:14:31 41° E 21:18:05 10° NNE
Cosmos 2123 Rocket 4.2 21:08:53 10° S 21:15:03 61° E 21:21:17 10° NNE
Cosmos 1953 3.1 21:12:00 10° NNW 21:15:58 50° W 21:19:52 10° S
USA 267 3.4 21:12:10 10° ESE 21:18:43 78° NNE 21:25:17 10° WNW
Cosmos 1110 Rocket 4.0 21:13:56 10° SSW 21:19:04 67° ESE 21:24:14 10° NNE
Cosmos 2100 Rocket 4.5 21:15:32 10° NNW 21:21:49 61° W 21:28:01 10° S
Cosmos 1461 3.4 21:18:43 10° NW 21:22:50 48° WSW 21:25:52 16° SSE
Cosmos 2233 Rocket 4.2 21:17:33 10° N 21:23:38 58° ENE 21:28:46 15° SSE
GEOS 3 Rocket 3.7 21:19:40 12° SE 21:24:37 88° NE 21:30:00 10° NW
ARIANE 5 R/B 4.1 21:21:20 10° SSW 21:25:18 32° W 21:29:22 10° NNW
Cosmos 2333 Rocket 2.8 21:21:56 12° S 21:26:53 40° ESE 21:32:12 10° NE
NOSS 8 (A) 4.1 21:24:06 10° SW 21:27:18 85° NW 21:30:13 10° NE
Cosmos 968 Rocket 3.8 21:24:19 10° NNW 21:29:22 57° ENE 21:33:36 15° SE
SL-14 R/B 3.4 21:26:32 14° S 21:29:56 67° E 21:33:57 10° NNE
Cosmos 405 2.9 21:30:17 10° NNW 21:33:45 84° WSW 21:36:09 19° S
Aureole 1 Rocket 4.5 21:33:22 10° NW 21:38:42 52° WSW 21:44:46 13° S
Cosmos 1844 4.1 21:34:08 10° NW 21:39:33 55° WSW 21:43:57 16° S
Cosmos 1452 Rocket 4.4 21:34:37 10° SW 21:39:46 50° WNW 21:44:56 10° NNE
ATLAS CENTAUR R/B 1.5 21:36:54 10° NW 21:41:12 79° SW 21:44:31 18° SE
SL-24 R/B 4.4 21:36:56 10° N 21:41:54 87° E 21:45:59 15° S
Meteor 1-24 Rocket 3.9 21:40:46 16° SSE 21:44:53 55° E 21:50:13 10° NNE
Cosmos 2016 Rocket 4.3 21:39:43 10° NNW 21:45:45 62° W 21:51:13 13° S
Cosmos 2219 Rocket 2.5 21:41:31 14° S 21:46:11 48° ESE 21:51:38 10° NE
SPOT 5 4.4 21:44:34 10° SSW 21:49:06 31° W 21:53:31 10° NNW
Cosmos 1606 Rocket 4.0 21:48:19 10° N 21:52:43 52° ENE 21:55:43 19° SE
Cosmos 1626 3.2 21:50:30 10° SSW 21:54:01 42° WNW 21:57:34 10° N
ALOS 2 3.6 21:50:57 15° SE 21:54:10 37° ENE 21:58:13 10° N
Cosmos 1725 Rocket 4.3 21:50:18 10° NNW 21:56:23 61° W 22:01:41 14° S
Meteor 2-10 Rocket 3.5 21:53:09 10° N 21:58:20 78° ENE 22:01:54 20° SSE
H-2A R/B 4.0 21:54:30 10° N 21:58:32 55° WNW 22:02:31 10° SSW
Cosmos 2237 Rocket 3.7 21:57:16 15° SE 21:59:56 21° E 22:04:00 10° NE
SJ 16-02 3.9 21:58:03 10° NNE 22:00:08 13° NE 22:02:11 10° ENE
BREEZE-M DEB (TANK) 3.4 22:00:10 10° WSW 22:03:16 64° SSE 22:12:22 10° E
SL-16 R/B 3.8 21:59:30 10° WSW 22:04:42 36° NW 22:09:56 10° NNE
Lacrosse 5 4.2 22:03:47 10° WSW 22:04:43 10° WSW 22:05:38 10° SW
BREEZE-M DEB (TANK) 4.1 21:57:23 10° SW 22:05:27 28° SSE 22:08:41 10° E
Terra 3.4 22:01:54 10° SSW 22:05:59 28° W 22:10:05 10° NW
Cosmos 2360 Rocket 2.8 22:01:44 10° SW 22:07:19 60° NW 22:12:55 10° NNE
FALCON 9 DEB 3.1 22:04:22 10° SW 22:07:43 56° SSE 22:11:05 10° ENE
Iridium 2 4.3 22:05:48 22° SSE 22:07:45 41° E 22:11:18 10° NNE
Cosmos 2322 Rocket 3.6 22:02:46 10° WSW 22:08:09 40° NW 22:13:32 10° NNE
Cosmos 1503 Rocket 4.5 22:05:00 10° NNW 22:10:20 58° ENE 22:14:30 16° SE
ATLAS 3B R/B 2.6 22:07:04 10° SSW 22:13:34 68° SE 22:20:19 10° NE
CZ-3B R/B 4.3 21:46:17 10° SW 22:16:49 86° SSE 22:22:31 10° ENE
Cosmos 1455 2.6 22:13:37 10° N 22:17:25 53° ENE 22:19:32 23° SE
COSMOS 2428 2.8 22:13:36 15° SSW 22:18:19 66° ESE 22:24:03 10° NE
Cosmos 1867 3.6 22:13:49 10° NW 22:19:20 82° SW 22:23:22 19° SE
OPS 8737 4.3 22:18:09 10° SW 22:21:55 88° NNW 22:24:56 10° NE
BREEZE-M DEB (TANK) 2.6 22:19:05 10° WSW 22:22:09 58° SSE 22:30:05 10° E
Cosmos 2322 3.7 22:16:50 10° SSW 22:22:30 86° WNW 22:28:12 10° NNE
Cosmos 1536 Rocket 4.5 22:18:35 11° SSW 22:22:41 46° WNW 22:27:00 10° N
FALCON 9 DEB 4.5 22:24:44 20° ESE 22:24:44 20° ESE 22:26:23 10° E
Cosmos 1300 4.2 22:20:51 10° NNW 22:24:09 28° W 22:26:42 14° SW
ATLAS CENTAUR R/B 4.2 22:20:59 18° SSE 22:24:12 27° ESE 22:33:39 10° ENE
Cosmos 1607 4.2 22:18:24 10° NW 22:24:54 74° NE 22:30:45 12° SE
Cosmos 1302 Rocket 4.1 22:20:04 11° SSW 22:25:05 79° WNW 22:30:23 10° NNE
USA 215 3.2 22:19:51 10° ENE 22:26:24 71° SE 22:32:56 10° SW
Cosmos 2278 Rocket 2.2 22:23:06 10° NNW 22:28:50 87° ENE 22:32:55 20° SSE
Cosmos 1346 Rocket 2.7 22:27:17 23° S 22:29:43 88° E 22:33:46 10° NNE
Cosmos 389 Rocket 2.9 22:31:52 10° NNW 22:35:11 50° W 22:36:46 26° SSW
Meteor 2-5 Rocket 4.3 22:30:33 11° SSW 22:35:47 53° WNW 22:41:17 10° N
SL-4 R/B 4.1 22:37:34 11° ESE 22:37:34 11° ESE 22:37:53 10° ESE
Meteor 1-4 Rocket 4.1 22:33:46 10° N 22:36:46 25° ENE 22:38:51 15° ESE
Cosmos 2034 Rocket 4.3 22:32:29 10° N 22:38:38 57° ENE 22:43:07 19° SSE
Lacrosse 5 rocket 0.8 22:36:48 10° WSW 22:40:26 85° SSE 22:44:01 10° ENE
Uosat 12 SS-18 rocket 4.2 22:41:41 18° SSW 22:44:56 69° SE 22:50:04 10° NE
Cosmos 2228 3.9 22:42:14 10° NNW 22:46:23 41° W 22:49:02 20° SSW
Okean 1-7 Rocket 4.1 22:44:49 24° SSE 22:47:13 47° E 22:51:30 10° NNE
FALCON 9 DEB 3.2 22:47:10 37° S 22:47:36 40° SSE 22:50:33 10° E
Spot 4 4.4 22:44:45 21° SSW 22:47:41 47° W 22:52:19 10° NNW
FALCON 9 DEB 3.5 22:48:40 34° SSE 22:48:40 34° SSE 22:51:32 10° E
Meteor 2-1 Rocket 4.2 22:46:26 10° NNW 22:51:59 86° ENE 22:55:36 23° SSE
FALCON 9 DEB 3.1 22:55:40 37° S 22:56:18 44° SSE 22:59:17 10° E
CENTAUR R/B 4.5 22:50:15 10° W 22:56:23 37° NNW 23:03:35 10° NE
USA 267 3.5 22:57:24 19° SSE 23:02:01 49° SW 23:08:21 10° WNW
Cosmos 1703 3.4 23:00:14 28° SSE 23:02:06 62° E 23:06:02 10° NNE
COBE Rocket 4.4 22:59:36 22° SSW 23:02:41 50° W 23:07:32 10° NNW
Cosmos 1777 Rocket 4.3 22:57:51 10° NNW 23:03:08 67° ENE 23:07:09 17° SE
Cosmos 2058 Rocket 3.2 22:59:42 10° NNW 23:04:08 66° W 23:06:34 26° S
Cosmos 1354 Rocket 4.1 23:00:21 10° NNW 23:05:39 67° WSW 23:08:54 24° S
Cosmos 1812 Rocket 4.3 23:04:12 10° N 23:08:24 45° ENE 23:11:12 19° SE
Cosmos 1328 4.3 23:06:47 26° SSE 23:08:33 46° E 23:12:18 10° NNE
Cosmos 1441 Rocket 3.3 23:07:22 29° S 23:09:10 66° E 23:13:00 10° NNE
Cosmos 1980 3.8 23:05:28 22° SSW 23:09:13 67° ESE 23:14:53 10° NE
Cosmos 2333 Rocket 3.2 23:05:38 10° WSW 23:11:08 46° NW 23:16:39 10° NNE
GP-B 3.6 23:08:33 10° N 23:12:54 50° E 23:15:26 23° SSE
Cosmos 1992 Rocket 4.2 23:11:11 17° SW 23:15:16 70° WNW 23:20:31 10° NNE
Aureole 3 4.3 23:13:16 10° N 23:16:28 36° ENE 23:18:57 18° SE
Cosmos 1943 Rocket 2.9 23:12:27 10° NNW 23:17:49 50° NE 23:23:10 10° SE
ATLAS CENTAUR R/B 3.6 23:17:18 10° W 23:19:29 14° WSW 23:20:38 12° SW
Cosmos 1184 Rocket 3.4 23:27:00 26° SW 23:28:29 47° WNW 23:31:39 10° N
Cosmos 2219 Rocket 3.4 23:24:58 10° WSW 23:30:17 39° NW 23:35:37 10° NNE
ALOS 2 3.8 23:28:20 19° SW 23:30:34 30° W 23:34:27 10° NNW
MTI 4.3 23:28:27 10° N 23:31:25 48° WNW 23:32:42 28° SW
EO 1 Del DPAF 4.0 23:29:58 10° NNE 23:33:30 39° E 23:35:10 24° SSE
NOSS 0 Rocket 4.1 23:30:01 15° SW 23:35:20 76° NW 23:41:37 10° NNE
SL-16 R/B 2.9 23:34:20 21° SSE 23:37:35 41° ESE 23:42:52 10° NE
Resurs 1-4 Rocket 4.2 23:34:21 10° NE 23:37:44 17° E 23:41:05 10° SE
SAR-Lupe-2 4.2 23:35:08 10° N 23:38:38 50° WNW 23:40:35 23° SW
SJ 16-02 1.5 23:35:12 10° NNW 23:39:36 68° ENE 23:42:46 18° SE
CZ-2D R/B 4.1 23:39:16 10° NE 23:42:41 17° E 23:46:04 10° SE
Cosmos 2237 Rocket 2.3 23:39:03 18° SW 23:43:21 79° WNW 23:49:01 10° NNE
Cosmos 724 4.3 23:37:19 10° NW 23:43:34 82° SW 23:49:11 12° SE
FALCON 9 DEB 3.4 23:41:13 10° W 23:44:37 68° N 23:48:01 10° E
OPS 6432 4.5 23:44:04 10° NW 23:47:00 66° NE 23:50:13 11° SE
PSLV R/B 3.5 23:47:32 10° NNE 23:51:50 89° ESE 23:54:21 25° SSW
Cosmos 1455 4.4 23:50:17 10° NW 23:52:34 15° W 23:54:24 12° WSW
Cosmos 2369 Rocket 3.1 23:47:00 10° NNW 23:52:36 50° NE 23:58:09 10° SE
USA 32 4.2 23:48:27 10° NNW 23:53:40 64° W 23:56:56 23° SSW
Cosmos 1825 4.3 23:52:24 10° SE 23:54:56 18° E 23:57:33 10° NE
